Location: Austin
(30.3000°N, 97.7500°W)
Time: 22:59:07
(UTC-05:00)

Cosmos 2251 Rocket - Pass Details

Date: 06 May 2026
Orbit: 760 x 788 km, 74.0° (Epoch: 13 May)

Event Time Altitude Azimuth Distance (km) Brightness Sun altitude
Rises 21:56:11 0° 343° (NNW) 3,282 7.6 -20.7°
Reaches altitude 10° 21:58:35 10° 342° (NNW) 2,350 6.8 -21.1°
Maximum altitude 22:03:57 83° 255° (WSW) 796 3.5 -22.0°
Enters shadow 22:05:50 42° 172° (S) 1,117 4.0 -22.4°
